GFSNIL_prec_pwat_000.txt.gz
Precipitable_Water
0.58 0.57 0.57 0.57 0.56 0.55 0.58 0.58 0.60 0.58 0.58 0.60 0.62 0.60 0.62 0.59 0.62 0.60 0.49 0.42 0.41 0.39
0.54 0.53 0.51 0.51 0.51 0.50 0.51 0.53 0.55 0.61 0.67 0.67 0.68 0.67 0.62 0.53 0.50 0.47 0.43 0.39 0.37 0.35
0.51 0.50 0.48 0.46 0.45 0.47 0.50 0.54 0.61 0.66 0.68 0.64 0.58 0.53 0.49 0.46 0.43 0.39 0.38 0.36 0.34 0.33
0.48 0.46 0.44 0.43 0.45 0.48 0.51 0.55 0.58 0.53 0.50 0.48 0.45 0.43 0.41 0.39 0.38 0.36 0.34 0.32 0.30 0.27
0.45 0.44 0.43 0.44 0.46 0.48 0.46 0.47 0.46 0.44 0.42 0.38 0.36 0.36 0.34 0.32 0.29 0.25 0.22 0.21 0.21 0.21
0.41 0.40 0.41 0.42 0.45 0.45 0.43 0.41 0.41 0.39 0.36 0.34 0.33 0.30 0.26 0.24 0.22 0.21 0.21 0.21 0.21 0.21
0.37 0.38 0.40 0.42 0.43 0.43 0.43 0.42 0.40 0.37 0.36 0.32 0.28 0.24 0.22 0.21 0.21 0.21 0.22 0.23 0.23 0.24
0.40 0.44 0.44 0.44 0.45 0.50 0.47 0.40 0.39 0.37 0.31 0.27 0.24 0.21 0.21 0.22 0.22 0.22 0.22 0.23 0.23 0.23
0.48 0.49 0.50 0.52 0.50 0.46 0.43 0.40 0.37 0.31 0.24 0.20 0.19 0.21 0.23 0.24 0.23 0.22 0.21 0.20 0.21 0.23
0.54 0.52 0.48 0.46 0.44 0.42 0.38 0.35 0.29 0.22 0.19 0.18 0.20 0.22 0.23 0.23 0.22 0.20 0.21 0.23 0.25 0.26
0.49 0.47 0.42 0.38 0.35 0.35 0.32 0.26 0.21 0.19 0.19 0.20 0.20 0.22 0.21 0.21 0.21 0.22 0.25 0.27 0.29 0.29
0.39 0.39 0.36 0.34 0.30 0.27 0.23 0.19 0.18 0.19 0.20 0.20 0.20 0.21 0.20 0.21 0.23 0.24 0.28 0.30 0.31 0.31
0.36 0.32 0.29 0.27 0.24 0.21 0.20 0.19 0.19 0.19 0.20 0.19 0.18 0.18 0.21 0.23 0.26 0.28 0.28 0.30 0.31 0.32
0.30 0.27 0.24 0.22 0.21 0.20 0.19 0.19 0.19 0.18 0.18 0.18 0.18 0.19 0.23 0.28 0.29 0.29 0.29 0.29 0.30 0.32

GFSNIL_prec_pwat_003.txt.gz
Precipitable_Water
0.53 0.51 0.50 0.50 0.47 0.45 0.45 0.45 0.48 0.51 0.56 0.60 0.61 0.64 0.61 0.62 0.64 0.65 0.63 0.61 0.56 0.47
0.50 0.45 0.43 0.44 0.44 0.42 0.44 0.46 0.51 0.53 0.56 0.59 0.61 0.63 0.64 0.63 0.60 0.57 0.53 0.48 0.45 0.43
0.43 0.40 0.40 0.41 0.41 0.43 0.46 0.49 0.50 0.51 0.52 0.55 0.58 0.56 0.52 0.49 0.47 0.45 0.45 0.44 0.42 0.39
0.40 0.38 0.39 0.40 0.41 0.43 0.46 0.46 0.45 0.46 0.47 0.48 0.45 0.43 0.41 0.38 0.36 0.35 0.33 0.31 0.28 0.26
0.39 0.36 0.36 0.36 0.39 0.42 0.42 0.46 0.44 0.41 0.40 0.39 0.37 0.36 0.34 0.31 0.29 0.26 0.23 0.22 0.22 0.22
0.36 0.34 0.36 0.38 0.40 0.41 0.43 0.43 0.43 0.42 0.39 0.38 0.36 0.33 0.30 0.27 0.24 0.23 0.23 0.22 0.22 0.21
0.36 0.35 0.38 0.40 0.42 0.45 0.47 0.45 0.43 0.40 0.38 0.36 0.32 0.28 0.25 0.23 0.21 0.21 0.21 0.21 0.22 0.22
0.41 0.40 0.42 0.46 0.47 0.48 0.48 0.45 0.43 0.40 0.37 0.34 0.30 0.25 0.23 0.23 0.22 0.21 0.21 0.20 0.20 0.20
0.49 0.49 0.49 0.48 0.48 0.47 0.47 0.47 0.43 0.37 0.33 0.29 0.24 0.26 0.25 0.24 0.22 0.20 0.18 0.17 0.18 0.19
0.49 0.47 0.48 0.48 0.46 0.44 0.39 0.36 0.33 0.31 0.29 0.23 0.23 0.24 0.24 0.22 0.20 0.18 0.17 0.18 0.20 0.21
0.39 0.38 0.39 0.38 0.35 0.33 0.31 0.29 0.27 0.24 0.23 0.23 0.23 0.22 0.21 0.20 0.18 0.17 0.19 0.21 0.24 0.27
0.36 0.32 0.31 0.30 0.28 0.27 0.25 0.23 0.23 0.23 0.22 0.20 0.20 0.20 0.19 0.18 0.17 0.18 0.21 0.26 0.29 0.29
0.32 0.30 0.26 0.24 0.22 0.22 0.22 0.22 0.22 0.20 0.20 0.20 0.19 0.18 0.18 0.19 0.19 0.21 0.25 0.28 0.29 0.30
0.26 0.23 0.22 0.21 0.22 0.21 0.20 0.20 0.19 0.19 0.19 0.18 0.18 0.18 0.19 0.20 0.22 0.25 0.27 0.28 0.29 0.32

GFSNIL_prec_pwat_006.txt.gz
Precipitable_Water
0.55 0.51 0.45 0.39 0.37 0.37 0.38 0.38 0.42 0.43 0.45 0.47 0.50 0.53 0.56 0.58 0.60 0.61 0.62 0.58 0.59 0.57
0.52 0.45 0.40 0.40 0.38 0.38 0.41 0.45 0.47 0.49 0.50 0.52 0.52 0.53 0.59 0.60 0.60 0.58 0.57 0.54 0.54 0.54
0.47 0.46 0.42 0.39 0.36 0.40 0.44 0.47 0.49 0.49 0.47 0.48 0.49 0.50 0.52 0.51 0.49 0.48 0.48 0.46 0.42 0.40
0.48 0.43 0.38 0.36 0.37 0.40 0.44 0.44 0.41 0.43 0.45 0.47 0.45 0.44 0.42 0.41 0.40 0.37 0.33 0.31 0.28 0.26
0.46 0.40 0.37 0.36 0.38 0.41 0.39 0.39 0.41 0.45 0.46 0.42 0.39 0.38 0.37 0.35 0.33 0.30 0.27 0.26 0.24 0.22
0.40 0.37 0.38 0.37 0.39 0.41 0.42 0.43 0.45 0.46 0.45 0.42 0.40 0.38 0.36 0.33 0.29 0.26 0.23 0.22 0.22 0.22
0.40 0.38 0.40 0.43 0.43 0.45 0.46 0.47 0.49 0.49 0.46 0.43 0.39 0.35 0.33 0.30 0.25 0.24 0.23 0.23 0.23 0.22
0.45 0.46 0.45 0.44 0.45 0.45 0.47 0.49 0.49 0.48 0.45 0.40 0.36 0.34 0.31 0.27 0.25 0.24 0.22 0.21 0.20 0.19
0.46 0.46 0.47 0.45 0.44 0.44 0.44 0.44 0.44 0.40 0.34 0.32 0.31 0.29 0.29 0.28 0.26 0.24 0.21 0.19 0.18 0.18
0.39 0.38 0.38 0.39 0.39 0.37 0.34 0.32 0.30 0.29 0.28 0.26 0.26 0.27 0.27 0.25 0.23 0.20 0.19 0.18 0.17 0.18
0.37 0.32 0.32 0.30 0.28 0.26 0.25 0.23 0.23 0.23 0.24 0.24 0.23 0.23 0.22 0.21 0.20 0.19 0.19 0.19 0.19 0.21
0.30 0.28 0.26 0.22 0.21 0.21 0.21 0.21 0.22 0.23 0.21 0.20 0.20 0.21 0.20 0.20 0.19 0.18 0.18 0.20 0.23 0.26
0.29 0.24 0.20 0.20 0.20 0.21 0.21 0.21 0.20 0.20 0.21 0.21 0.20 0.20 0.20 0.20 0.19 0.18 0.19 0.22 0.27 0.29
0.24 0.21 0.20 0.20 0.20 0.20 0.20 0.19 0.19 0.19 0.20 0.21 0.20 0.19 0.19 0.20 0.20 0.20 0.21 0.26 0.28 0.30

GFSNIL_prec_pwat_009.txt.gz
Precipitable_Water
0.61 0.55 0.49 0.45 0.44 0.42 0.40 0.40 0.45 0.46 0.48 0.49 0.49 0.51 0.51 0.52 0.53 0.54 0.55 0.54 0.55 0.54
0.53 0.51 0.47 0.48 0.45 0.39 0.40 0.43 0.47 0.49 0.50 0.52 0.52 0.54 0.55 0.54 0.54 0.53 0.53 0.53 0.53 0.52
0.55 0.52 0.50 0.41 0.39 0.40 0.43 0.48 0.50 0.49 0.46 0.46 0.49 0.51 0.50 0.49 0.48 0.45 0.44 0.43 0.42 0.43
0.54 0.48 0.41 0.40 0.40 0.41 0.45 0.46 0.43 0.44 0.46 0.48 0.51 0.50 0.44 0.42 0.41 0.38 0.37 0.36 0.33 0.31
0.46 0.43 0.38 0.37 0.39 0.42 0.41 0.41 0.43 0.45 0.48 0.50 0.48 0.46 0.41 0.40 0.38 0.35 0.33 0.30 0.27 0.25
0.42 0.40 0.41 0.42 0.45 0.46 0.46 0.46 0.47 0.49 0.49 0.48 0.46 0.42 0.39 0.36 0.35 0.33 0.31 0.27 0.24 0.24
0.43 0.45 0.46 0.46 0.46 0.46 0.47 0.46 0.47 0.47 0.46 0.46 0.44 0.41 0.37 0.34 0.33 0.30 0.27 0.26 0.26 0.25
0.45 0.49 0.46 0.42 0.41 0.42 0.43 0.42 0.44 0.43 0.41 0.36 0.33 0.32 0.32 0.30 0.28 0.26 0.26 0.25 0.24 0.23
0.39 0.38 0.36 0.36 0.35 0.36 0.34 0.31 0.29 0.27 0.27 0.26 0.26 0.27 0.28 0.28 0.26 0.25 0.24 0.22 0.22 0.21
0.34 0.32 0.30 0.29 0.26 0.23 0.22 0.22 0.22 0.22 0.23 0.23 0.24 0.23 0.24 0.24 0.23 0.22 0.21 0.20 0.19 0.19
0.33 0.30 0.28 0.24 0.21 0.20 0.21 0.21 0.21 0.21 0.21 0.20 0.21 0.22 0.21 0.21 0.22 0.21 0.21 0.20 0.19 0.20
0.30 0.28 0.23 0.21 0.20 0.20 0.19 0.19 0.19 0.19 0.20 0.20 0.20 0.21 0.21 0.21 0.21 0.20 0.19 0.20 0.21 0.22
0.30 0.24 0.22 0.21 0.19 0.19 0.19 0.19 0.19 0.20 0.22 0.22 0.22 0.22 0.21 0.21 0.20 0.19 0.19 0.21 0.22 0.25
0.27 0.25 0.21 0.21 0.21 0.19 0.19 0.21 0.22 0.22 0.23 0.23 0.22 0.21 0.20 0.20 0.20 0.20 0.20 0.20 0.22 0.28

GFSNIL_prec_pwat_012.txt.gz
Precipitable_Water
0.61 0.58 0.54 0.52 0.50 0.47 0.46 0.45 0.48 0.48 0.48 0.49 0.51 0.52 0.55 0.57 0.53 0.52 0.50 0.49 0.49 0.50
0.61 0.57 0.54 0.50 0.49 0.46 0.45 0.44 0.46 0.50 0.51 0.51 0.51 0.52 0.51 0.51 0.52 0.52 0.49 0.49 0.49 0.46
0.57 0.54 0.50 0.46 0.42 0.42 0.44 0.49 0.51 0.51 0.49 0.50 0.52 0.53 0.53 0.50 0.49 0.49 0.49 0.48 0.46 0.45
0.51 0.45 0.42 0.41 0.43 0.45 0.46 0.44 0.46 0.46 0.48 0.50 0.51 0.52 0.50 0.48 0.46 0.43 0.41 0.40 0.38 0.36
0.46 0.43 0.43 0.44 0.45 0.47 0.46 0.46 0.45 0.48 0.49 0.49 0.50 0.49 0.46 0.44 0.42 0.38 0.37 0.37 0.35 0.33
0.43 0.43 0.42 0.43 0.44 0.44 0.45 0.46 0.49 0.48 0.47 0.47 0.47 0.46 0.44 0.43 0.40 0.38 0.36 0.34 0.31 0.29
0.41 0.43 0.43 0.41 0.40 0.40 0.41 0.42 0.43 0.43 0.42 0.39 0.35 0.34 0.35 0.34 0.34 0.33 0.32 0.31 0.30 0.28
0.36 0.37 0.37 0.36 0.35 0.34 0.33 0.30 0.28 0.26 0.26 0.26 0.26 0.26 0.26 0.26 0.27 0.27 0.26 0.27 0.27 0.26
0.35 0.35 0.34 0.33 0.30 0.27 0.25 0.24 0.24 0.23 0.23 0.24 0.24 0.24 0.22 0.22 0.22 0.22 0.22 0.22 0.23 0.23
0.35 0.34 0.31 0.29 0.25 0.23 0.23 0.24 0.22 0.21 0.22 0.22 0.22 0.21 0.21 0.20 0.20 0.20 0.21 0.22 0.22 0.21
0.33 0.31 0.30 0.25 0.25 0.24 0.22 0.20 0.20 0.21 0.21 0.21 0.22 0.23 0.23 0.22 0.22 0.22 0.22 0.22 0.22 0.21
0.32 0.31 0.26 0.25 0.24 0.21 0.21 0.20 0.20 0.21 0.23 0.23 0.24 0.25 0.23 0.21 0.21 0.21 0.21 0.21 0.22 0.22
0.32 0.31 0.27 0.24 0.22 0.22 0.21 0.20 0.23 0.25 0.26 0.25 0.24 0.25 0.23 0.21 0.21 0.20 0.21 0.22 0.23 0.24
0.34 0.30 0.25 0.23 0.23 0.23 0.22 0.24 0.25 0.25 0.25 0.25 0.25 0.23 0.23 0.22 0.21 0.21 0.21 0.21 0.22 0.24

GFSNIL_prec_pwat_015.txt.gz
Precipitable_Water
0.71 0.67 0.62 0.57 0.53 0.49 0.48 0.48 0.50 0.51 0.55 0.54 0.56 0.58 0.56 0.56 0.55 0.55 0.50 0.47 0.48 0.49
0.67 0.63 0.59 0.53 0.50 0.45 0.45 0.45 0.49 0.49 0.50 0.50 0.50 0.50 0.51 0.51 0.50 0.50 0.48 0.47 0.47 0.46
0.63 0.60 0.51 0.46 0.44 0.43 0.42 0.43 0.42 0.45 0.46 0.48 0.49 0.50 0.50 0.48 0.49 0.49 0.50 0.51 0.49 0.49
0.53 0.49 0.46 0.43 0.43 0.43 0.43 0.41 0.44 0.44 0.47 0.48 0.47 0.48 0.48 0.49 0.49 0.48 0.46 0.44 0.41 0.40
0.45 0.45 0.44 0.43 0.43 0.43 0.40 0.44 0.46 0.48 0.47 0.47 0.47 0.48 0.48 0.46 0.44 0.43 0.42 0.42 0.41 0.39
0.42 0.43 0.39 0.41 0.39 0.38 0.38 0.38 0.39 0.41 0.43 0.43 0.40 0.36 0.32 0.32 0.34 0.34 0.36 0.35 0.34 0.33
0.39 0.38 0.37 0.39 0.38 0.36 0.35 0.33 0.30 0.29 0.28 0.28 0.27 0.27 0.28 0.28 0.25 0.25 0.26 0.28 0.29 0.29
0.37 0.36 0.38 0.37 0.34 0.33 0.30 0.28 0.27 0.26 0.26 0.26 0.25 0.25 0.24 0.23 0.20 0.20 0.21 0.22 0.23 0.24
0.35 0.36 0.36 0.34 0.32 0.27 0.27 0.26 0.26 0.25 0.24 0.25 0.24 0.25 0.23 0.22 0.21 0.20 0.21 0.21 0.22 0.23
0.37 0.36 0.34 0.32 0.27 0.27 0.27 0.26 0.24 0.24 0.24 0.23 0.24 0.26 0.25 0.25 0.24 0.22 0.22 0.23 0.24 0.24
0.35 0.35 0.32 0.31 0.27 0.28 0.26 0.25 0.24 0.24 0.24 0.25 0.26 0.28 0.26 0.24 0.23 0.23 0.23 0.24 0.24 0.23
0.36 0.35 0.32 0.30 0.29 0.27 0.25 0.25 0.23 0.24 0.26 0.25 0.26 0.27 0.27 0.25 0.23 0.23 0.22 0.23 0.24 0.24
0.34 0.34 0.33 0.30 0.29 0.26 0.25 0.24 0.25 0.26 0.26 0.26 0.26 0.29 0.26 0.25 0.23 0.21 0.22 0.22 0.23 0.24
0.42 0.39 0.34 0.31 0.28 0.25 0.25 0.25 0.28 0.27 0.27 0.27 0.29 0.27 0.27 0.26 0.24 0.23 0.24 0.23 0.23 0.25

GFSNIL_prec_pwat_018.txt.gz
Precipitable_Water
0.74 0.68 0.63 0.59 0.55 0.49 0.46 0.45 0.46 0.45 0.47 0.48 0.49 0.50 0.50 0.50 0.50 0.49 0.48 0.45 0.45 0.44
0.63 0.60 0.56 0.50 0.46 0.43 0.43 0.40 0.40 0.43 0.46 0.46 0.48 0.48 0.48 0.46 0.45 0.46 0.48 0.48 0.49 0.47
0.56 0.52 0.49 0.44 0.42 0.42 0.40 0.38 0.37 0.41 0.46 0.49 0.49 0.49 0.48 0.47 0.46 0.46 0.49 0.50 0.48 0.47
0.47 0.43 0.42 0.45 0.44 0.41 0.36 0.34 0.35 0.40 0.43 0.43 0.44 0.44 0.42 0.43 0.43 0.41 0.41 0.43 0.45 0.45
0.39 0.41 0.43 0.42 0.41 0.35 0.34 0.36 0.37 0.37 0.36 0.39 0.39 0.40 0.40 0.35 0.34 0.34 0.34 0.33 0.34 0.35
0.39 0.40 0.40 0.38 0.35 0.37 0.36 0.34 0.33 0.32 0.29 0.28 0.28 0.27 0.26 0.25 0.27 0.25 0.24 0.21 0.23 0.25
0.38 0.38 0.37 0.36 0.35 0.37 0.36 0.32 0.29 0.28 0.28 0.27 0.26 0.25 0.26 0.26 0.26 0.24 0.22 0.19 0.20 0.21
0.39 0.41 0.40 0.39 0.36 0.35 0.33 0.28 0.29 0.28 0.27 0.26 0.26 0.26 0.25 0.24 0.24 0.23 0.22 0.22 0.22 0.23
0.41 0.42 0.42 0.37 0.34 0.34 0.29 0.29 0.29 0.27 0.26 0.26 0.26 0.27 0.25 0.26 0.25 0.25 0.23 0.21 0.21 0.24
0.46 0.42 0.41 0.35 0.31 0.32 0.29 0.30 0.29 0.26 0.26 0.25 0.27 0.28 0.28 0.28 0.27 0.25 0.24 0.23 0.24 0.24
0.41 0.44 0.41 0.37 0.32 0.33 0.30 0.30 0.27 0.26 0.26 0.26 0.26 0.27 0.28 0.27 0.26 0.24 0.23 0.23 0.22 0.22
0.40 0.41 0.40 0.37 0.36 0.33 0.30 0.29 0.27 0.28 0.28 0.27 0.27 0.27 0.29 0.30 0.27 0.25 0.24 0.23 0.25 0.25
0.45 0.45 0.42 0.40 0.38 0.32 0.32 0.29 0.28 0.27 0.28 0.28 0.26 0.28 0.29 0.30 0.28 0.25 0.24 0.24 0.25 0.25
0.37 0.40 0.39 0.39 0.34 0.32 0.27 0.27 0.27 0.25 0.26 0.25 0.25 0.28 0.30 0.29 0.27 0.24 0.22 0.22 0.23 0.24

GFSNIL_prec_pwat_021.txt.gz
Precipitable_Water
0.65 0.61 0.58 0.56 0.51 0.42 0.39 0.40 0.41 0.38 0.39 0.42 0.44 0.46 0.47 0.45 0.44 0.44 0.42 0.41 0.44 0.45
0.61 0.56 0.53 0.48 0.42 0.39 0.41 0.41 0.38 0.33 0.37 0.41 0.43 0.44 0.43 0.40 0.40 0.43 0.43 0.45 0.44 0.48
0.53 0.48 0.42 0.40 0.39 0.40 0.40 0.40 0.32 0.32 0.36 0.38 0.39 0.39 0.40 0.40 0.40 0.39 0.40 0.40 0.41 0.41
0.43 0.37 0.39 0.38 0.38 0.38 0.37 0.31 0.33 0.33 0.31 0.31 0.32 0.32 0.33 0.32 0.31 0.30 0.33 0.34 0.31 0.29
0.41 0.41 0.42 0.39 0.37 0.38 0.36 0.33 0.31 0.29 0.28 0.28 0.28 0.28 0.28 0.27 0.26 0.24 0.26 0.26 0.26 0.24
0.43 0.45 0.43 0.41 0.41 0.42 0.41 0.33 0.29 0.26 0.25 0.27 0.27 0.26 0.26 0.26 0.25 0.25 0.26 0.25 0.24 0.22
0.44 0.46 0.44 0.45 0.44 0.47 0.43 0.34 0.30 0.27 0.26 0.28 0.25 0.25 0.24 0.24 0.25 0.25 0.24 0.25 0.24 0.23
0.42 0.45 0.44 0.46 0.48 0.45 0.41 0.35 0.30 0.28 0.28 0.28 0.26 0.24 0.24 0.25 0.26 0.25 0.24 0.24 0.24 0.23
0.41 0.45 0.46 0.46 0.48 0.49 0.41 0.35 0.31 0.29 0.28 0.27 0.25 0.27 0.28 0.28 0.26 0.24 0.23 0.22 0.21 0.23
0.36 0.38 0.41 0.44 0.48 0.44 0.38 0.33 0.30 0.30 0.31 0.26 0.27 0.30 0.29 0.27 0.26 0.26 0.25 0.24 0.23 0.21
0.32 0.34 0.36 0.37 0.44 0.43 0.38 0.34 0.30 0.32 0.30 0.28 0.30 0.28 0.26 0.28 0.29 0.28 0.28 0.27 0.25 0.23
0.33 0.32 0.33 0.34 0.37 0.42 0.34 0.33 0.33 0.29 0.28 0.27 0.24 0.25 0.26 0.27 0.27 0.27 0.26 0.25 0.23 0.23
0.33 0.34 0.35 0.37 0.33 0.33 0.34 0.31 0.27 0.26 0.27 0.25 0.24 0.25 0.25 0.28 0.27 0.24 0.23 0.24 0.24 0.25
0.34 0.35 0.38 0.40 0.39 0.34 0.29 0.26 0.26 0.25 0.24 0.23 0.23 0.22 0.24 0.25 0.24 0.23 0.23 0.23 0.24 0.25

GFSNIL_prec_pwat_027.txt.gz
Precipitable_Water
0.61 0.57 0.53 0.50 0.45 0.39 0.36 0.37 0.38 0.39 0.42 0.43 0.42 0.40 0.37 0.36 0.34 0.33 0.31 0.29 0.31 0.30
0.54 0.51 0.47 0.44 0.41 0.39 0.40 0.41 0.42 0.41 0.42 0.43 0.45 0.45 0.40 0.37 0.34 0.34 0.31 0.29 0.29 0.27
0.47 0.45 0.42 0.41 0.40 0.42 0.43 0.44 0.45 0.44 0.44 0.46 0.43 0.39 0.37 0.32 0.32 0.29 0.28 0.27 0.24 0.24
0.39 0.40 0.41 0.41 0.42 0.44 0.46 0.48 0.46 0.44 0.44 0.46 0.40 0.37 0.33 0.31 0.29 0.26 0.24 0.24 0.23 0.23
0.39 0.38 0.37 0.37 0.40 0.45 0.46 0.45 0.42 0.41 0.43 0.46 0.38 0.35 0.33 0.30 0.29 0.27 0.24 0.25 0.24 0.23
0.34 0.34 0.33 0.33 0.31 0.31 0.32 0.34 0.35 0.37 0.41 0.38 0.34 0.35 0.33 0.31 0.28 0.26 0.26 0.26 0.24 0.23
0.34 0.34 0.31 0.31 0.30 0.29 0.30 0.33 0.37 0.40 0.36 0.36 0.37 0.35 0.33 0.31 0.29 0.26 0.27 0.26 0.24 0.22
0.32 0.30 0.29 0.29 0.29 0.28 0.33 0.37 0.39 0.40 0.39 0.38 0.35 0.33 0.32 0.30 0.27 0.25 0.23 0.24 0.23 0.24
0.28 0.29 0.30 0.30 0.28 0.31 0.35 0.36 0.37 0.39 0.37 0.32 0.31 0.31 0.29 0.28 0.25 0.24 0.23 0.22 0.24 0.25
0.31 0.30 0.29 0.29 0.30 0.31 0.33 0.36 0.36 0.34 0.30 0.27 0.27 0.27 0.27 0.26 0.24 0.22 0.21 0.21 0.22 0.22
0.31 0.28 0.27 0.29 0.30 0.32 0.34 0.34 0.32 0.30 0.27 0.26 0.25 0.26 0.24 0.24 0.20 0.19 0.19 0.21 0.22 0.23
0.27 0.27 0.28 0.29 0.33 0.34 0.35 0.34 0.31 0.28 0.25 0.24 0.23 0.22 0.21 0.20 0.19 0.18 0.19 0.22 0.23 0.25
0.28 0.28 0.27 0.28 0.32 0.35 0.35 0.31 0.28 0.25 0.24 0.24 0.20 0.21 0.19 0.19 0.18 0.17 0.19 0.22 0.24 0.26
0.29 0.28 0.27 0.29 0.32 0.31 0.29 0.26 0.24 0.23 0.23 0.21 0.21 0.20 0.19 0.19 0.18 0.18 0.19 0.21 0.23 0.26

GFSNIL_prec_pwat_030.txt.gz
Precipitable_Water
0.58 0.53 0.50 0.45 0.42 0.40 0.38 0.38 0.40 0.41 0.43 0.43 0.42 0.43 0.44 0.43 0.41 0.36 0.33 0.31 0.32 0.30
0.54 0.52 0.47 0.45 0.43 0.42 0.42 0.43 0.45 0.45 0.44 0.44 0.47 0.50 0.46 0.45 0.39 0.36 0.34 0.32 0.31 0.29
0.50 0.46 0.45 0.44 0.43 0.41 0.42 0.44 0.46 0.46 0.42 0.40 0.40 0.42 0.42 0.39 0.36 0.34 0.32 0.30 0.27 0.26
0.43 0.42 0.41 0.38 0.36 0.33 0.33 0.32 0.30 0.33 0.35 0.36 0.38 0.41 0.37 0.33 0.32 0.31 0.30 0.29 0.28 0.25
0.40 0.38 0.36 0.34 0.33 0.33 0.30 0.30 0.29 0.33 0.37 0.39 0.40 0.37 0.32 0.33 0.34 0.31 0.30 0.29 0.25 0.23
0.37 0.35 0.31 0.29 0.28 0.28 0.28 0.28 0.31 0.36 0.39 0.37 0.35 0.35 0.36 0.36 0.33 0.30 0.29 0.25 0.24 0.23
0.34 0.30 0.28 0.28 0.29 0.28 0.28 0.29 0.34 0.36 0.36 0.38 0.36 0.36 0.34 0.30 0.29 0.27 0.26 0.25 0.23 0.23
0.31 0.30 0.30 0.30 0.29 0.29 0.30 0.34 0.35 0.36 0.36 0.37 0.32 0.29 0.27 0.27 0.26 0.24 0.23 0.22 0.22 0.22
0.30 0.31 0.30 0.28 0.29 0.30 0.31 0.33 0.36 0.35 0.33 0.31 0.27 0.27 0.27 0.26 0.24 0.22 0.19 0.18 0.19 0.20
0.31 0.30 0.27 0.29 0.31 0.29 0.31 0.33 0.33 0.32 0.31 0.28 0.26 0.26 0.25 0.24 0.21 0.18 0.17 0.17 0.17 0.19
0.29 0.26 0.28 0.29 0.30 0.32 0.33 0.32 0.33 0.31 0.29 0.25 0.24 0.23 0.22 0.22 0.20 0.18 0.17 0.18 0.19 0.21
0.27 0.26 0.27 0.26 0.27 0.31 0.33 0.34 0.32 0.29 0.25 0.23 0.22 0.21 0.20 0.20 0.18 0.17 0.17 0.19 0.20 0.23
0.28 0.27 0.26 0.27 0.27 0.31 0.33 0.30 0.28 0.26 0.24 0.24 0.21 0.20 0.20 0.20 0.19 0.16 0.17 0.19 0.20 0.22
0.28 0.29 0.29 0.28 0.29 0.29 0.29 0.27 0.25 0.23 0.24 0.22 0.21 0.20 0.20 0.21 0.19 0.18 0.18 0.18 0.18 0.21

GFSNIL_prec_pwat_033.txt.gz
Precipitable_Water
0.63 0.58 0.54 0.52 0.51 0.49 0.47 0.46 0.46 0.45 0.46 0.45 0.44 0.41 0.44 0.42 0.43 0.42 0.40 0.36 0.34 0.34
0.61 0.57 0.53 0.51 0.49 0.46 0.43 0.38 0.36 0.35 0.31 0.34 0.39 0.38 0.42 0.38 0.38 0.40 0.38 0.33 0.32 0.31
0.55 0.52 0.48 0.44 0.40 0.36 0.33 0.32 0.31 0.29 0.29 0.32 0.37 0.41 0.42 0.38 0.38 0.37 0.34 0.33 0.32 0.31
0.48 0.45 0.41 0.38 0.36 0.31 0.30 0.30 0.29 0.30 0.32 0.35 0.38 0.42 0.43 0.38 0.35 0.33 0.33 0.33 0.32 0.29
0.43 0.40 0.37 0.33 0.30 0.32 0.31 0.30 0.30 0.31 0.32 0.36 0.39 0.41 0.38 0.34 0.34 0.32 0.31 0.30 0.28 0.25
0.39 0.37 0.32 0.32 0.33 0.33 0.30 0.30 0.32 0.34 0.36 0.36 0.35 0.36 0.36 0.34 0.31 0.29 0.27 0.26 0.25 0.24
0.35 0.33 0.33 0.34 0.33 0.30 0.31 0.32 0.33 0.35 0.36 0.37 0.37 0.35 0.33 0.29 0.25 0.26 0.26 0.25 0.24 0.22
0.35 0.35 0.35 0.33 0.29 0.30 0.31 0.32 0.33 0.34 0.36 0.34 0.32 0.31 0.30 0.26 0.25 0.23 0.21 0.20 0.18 0.18
0.34 0.35 0.33 0.29 0.29 0.30 0.31 0.32 0.33 0.33 0.31 0.30 0.31 0.31 0.25 0.24 0.23 0.20 0.18 0.16 0.17 0.17
0.33 0.31 0.28 0.28 0.29 0.29 0.30 0.32 0.32 0.32 0.30 0.29 0.28 0.25 0.23 0.23 0.21 0.18 0.17 0.17 0.16 0.17
0.30 0.28 0.28 0.27 0.27 0.27 0.30 0.32 0.32 0.30 0.29 0.27 0.25 0.24 0.22 0.20 0.19 0.18 0.17 0.17 0.18 0.18
0.29 0.28 0.27 0.26 0.26 0.27 0.28 0.31 0.31 0.29 0.27 0.25 0.23 0.23 0.21 0.20 0.19 0.19 0.18 0.19 0.19 0.19
0.29 0.27 0.27 0.27 0.27 0.28 0.31 0.31 0.31 0.28 0.26 0.25 0.23 0.22 0.20 0.20 0.20 0.19 0.18 0.18 0.19 0.19
0.27 0.27 0.28 0.28 0.27 0.28 0.28 0.29 0.29 0.26 0.25 0.24 0.23 0.21 0.21 0.20 0.20 0.19 0.17 0.17 0.17 0.17

GFSNIL_prec_pwat_036.txt.gz
Precipitable_Water
0.70 0.68 0.63 0.57 0.54 0.53 0.51 0.49 0.46 0.42 0.39 0.38 0.38 0.41 0.43 0.46 0.46 0.45 0.40 0.41 0.41 0.39
0.68 0.63 0.55 0.53 0.50 0.47 0.43 0.40 0.36 0.36 0.34 0.34 0.36 0.39 0.41 0.44 0.43 0.41 0.37 0.36 0.39 0.36
0.64 0.56 0.50 0.47 0.44 0.41 0.38 0.34 0.33 0.32 0.32 0.33 0.35 0.38 0.41 0.40 0.42 0.42 0.36 0.36 0.35 0.34
0.55 0.48 0.45 0.43 0.40 0.36 0.34 0.33 0.32 0.33 0.33 0.34 0.36 0.39 0.40 0.39 0.43 0.37 0.34 0.34 0.33 0.31
0.47 0.44 0.42 0.38 0.35 0.35 0.35 0.34 0.34 0.36 0.36 0.36 0.37 0.38 0.35 0.34 0.36 0.35 0.33 0.30 0.28 0.26
0.45 0.42 0.37 0.36 0.36 0.37 0.34 0.34 0.36 0.35 0.35 0.35 0.35 0.36 0.37 0.36 0.34 0.32 0.27 0.26 0.25 0.24
0.42 0.37 0.38 0.38 0.38 0.35 0.35 0.33 0.33 0.34 0.33 0.34 0.34 0.34 0.32 0.31 0.31 0.28 0.25 0.24 0.23 0.21
0.39 0.39 0.39 0.38 0.35 0.34 0.34 0.33 0.34 0.33 0.33 0.33 0.31 0.29 0.30 0.29 0.25 0.24 0.21 0.20 0.19 0.19
0.39 0.37 0.37 0.34 0.32 0.32 0.33 0.34 0.34 0.33 0.32 0.31 0.29 0.29 0.26 0.24 0.23 0.21 0.20 0.18 0.18 0.19
0.36 0.34 0.33 0.31 0.31 0.30 0.30 0.32 0.33 0.33 0.32 0.30 0.31 0.27 0.25 0.23 0.21 0.20 0.19 0.18 0.18 0.19
0.34 0.32 0.31 0.31 0.29 0.29 0.29 0.31 0.32 0.32 0.31 0.30 0.29 0.26 0.24 0.22 0.21 0.21 0.20 0.19 0.20 0.19
0.33 0.31 0.30 0.29 0.29 0.29 0.28 0.29 0.32 0.33 0.31 0.29 0.28 0.24 0.23 0.21 0.21 0.21 0.20 0.21 0.20 0.19
0.31 0.30 0.28 0.29 0.29 0.29 0.29 0.29 0.32 0.32 0.31 0.29 0.27 0.25 0.23 0.21 0.21 0.21 0.20 0.20 0.19 0.19
0.29 0.28 0.29 0.29 0.29 0.28 0.28 0.29 0.30 0.30 0.30 0.28 0.27 0.26 0.23 0.21 0.21 0.20 0.20 0.18 0.18 0.19

GFSNIL_prec_pwat_039.txt.gz
Precipitable_Water
0.75 0.75 0.76 0.68 0.64 0.55 0.53 0.48 0.47 0.43 0.42 0.40 0.39 0.38 0.39 0.41 0.43 0.46 0.51 0.49 0.45 0.38
0.76 0.72 0.65 0.62 0.56 0.52 0.47 0.43 0.39 0.40 0.38 0.37 0.36 0.36 0.38 0.38 0.41 0.44 0.47 0.47 0.43 0.38
0.73 0.72 0.62 0.54 0.50 0.45 0.43 0.41 0.39 0.37 0.36 0.36 0.37 0.37 0.37 0.39 0.41 0.40 0.41 0.43 0.39 0.35
0.73 0.60 0.53 0.49 0.45 0.42 0.42 0.40 0.36 0.36 0.36 0.36 0.36 0.38 0.36 0.38 0.38 0.37 0.38 0.37 0.37 0.35
0.63 0.52 0.48 0.45 0.43 0.42 0.40 0.38 0.36 0.36 0.36 0.36 0.35 0.35 0.34 0.34 0.35 0.34 0.33 0.33 0.32 0.29
0.54 0.50 0.46 0.43 0.43 0.42 0.39 0.37 0.36 0.37 0.36 0.35 0.35 0.35 0.36 0.34 0.34 0.32 0.31 0.30 0.28 0.25
0.50 0.48 0.43 0.42 0.42 0.41 0.38 0.37 0.37 0.37 0.37 0.35 0.35 0.34 0.33 0.31 0.30 0.29 0.26 0.26 0.24 0.23
0.48 0.45 0.43 0.43 0.42 0.39 0.38 0.38 0.38 0.36 0.35 0.36 0.34 0.31 0.30 0.28 0.26 0.24 0.23 0.23 0.22 0.21
0.43 0.42 0.42 0.42 0.39 0.37 0.36 0.36 0.36 0.37 0.35 0.34 0.33 0.31 0.29 0.27 0.25 0.23 0.22 0.21 0.20 0.20
0.42 0.40 0.41 0.37 0.36 0.35 0.34 0.35 0.35 0.34 0.35 0.33 0.34 0.32 0.29 0.26 0.24 0.22 0.22 0.22 0.21 0.20
0.42 0.41 0.38 0.36 0.35 0.34 0.35 0.34 0.33 0.34 0.34 0.33 0.34 0.32 0.28 0.25 0.24 0.23 0.23 0.23 0.21 0.20
0.41 0.38 0.35 0.33 0.32 0.35 0.33 0.31 0.32 0.33 0.33 0.34 0.34 0.31 0.28 0.25 0.23 0.23 0.23 0.22 0.21 0.22
0.37 0.35 0.32 0.31 0.32 0.34 0.32 0.31 0.30 0.30 0.33 0.35 0.33 0.31 0.28 0.25 0.23 0.22 0.22 0.22 0.22 0.21
0.36 0.32 0.32 0.32 0.32 0.32 0.31 0.31 0.29 0.29 0.32 0.33 0.33 0.31 0.28 0.25 0.23 0.22 0.21 0.20 0.20 0.20

GFSNIL_prec_pwat_045.txt.gz
Precipitable_Water
0.81 0.79 0.80 0.80 0.78 0.73 0.72 0.70 0.70 0.66 0.55 0.45 0.36 0.36 0.38 0.39 0.40 0.41 0.40 0.40 0.40 0.41
0.82 0.82 0.80 0.78 0.74 0.75 0.73 0.67 0.62 0.54 0.45 0.39 0.37 0.41 0.43 0.40 0.40 0.40 0.40 0.39 0.39 0.37
0.80 0.80 0.78 0.73 0.71 0.74 0.70 0.62 0.54 0.49 0.41 0.39 0.43 0.42 0.41 0.41 0.40 0.35 0.34 0.35 0.34 0.34
0.82 0.80 0.77 0.72 0.69 0.69 0.69 0.60 0.46 0.42 0.40 0.42 0.43 0.41 0.39 0.36 0.34 0.34 0.32 0.32 0.32 0.31
0.81 0.79 0.73 0.70 0.69 0.68 0.62 0.49 0.45 0.44 0.44 0.42 0.43 0.40 0.39 0.33 0.33 0.34 0.33 0.32 0.30 0.28
0.78 0.73 0.69 0.66 0.68 0.62 0.55 0.49 0.47 0.46 0.43 0.41 0.41 0.40 0.39 0.35 0.37 0.37 0.33 0.29 0.27 0.25
0.70 0.69 0.64 0.65 0.59 0.59 0.55 0.47 0.46 0.48 0.41 0.44 0.43 0.41 0.40 0.36 0.36 0.34 0.33 0.30 0.26 0.23
0.66 0.64 0.61 0.60 0.63 0.57 0.50 0.48 0.48 0.42 0.45 0.43 0.42 0.43 0.39 0.35 0.35 0.34 0.31 0.30 0.25 0.23
0.59 0.58 0.60 0.64 0.56 0.52 0.50 0.48 0.45 0.44 0.41 0.43 0.40 0.40 0.38 0.35 0.33 0.32 0.30 0.27 0.24 0.24
0.58 0.60 0.63 0.56 0.52 0.50 0.48 0.44 0.45 0.43 0.41 0.37 0.38 0.39 0.37 0.33 0.33 0.32 0.30 0.29 0.25 0.23
0.58 0.61 0.57 0.54 0.52 0.47 0.46 0.44 0.43 0.41 0.38 0.36 0.37 0.37 0.36 0.33 0.33 0.33 0.32 0.30 0.26 0.23
0.60 0.56 0.55 0.49 0.48 0.46 0.43 0.41 0.39 0.38 0.36 0.35 0.35 0.37 0.36 0.34 0.32 0.32 0.30 0.28 0.24 0.23
0.60 0.55 0.50 0.48 0.44 0.43 0.39 0.35 0.34 0.34 0.35 0.35 0.34 0.35 0.33 0.31 0.31 0.29 0.29 0.26 0.23 0.24
0.57 0.52 0.47 0.43 0.40 0.35 0.33 0.32 0.30 0.31 0.32 0.32 0.32 0.32 0.32 0.32 0.29 0.28 0.25 0.23 0.21 0.23

GFSNIL_prec_pwat_048.txt.gz
Precipitable_Water
0.86 0.83 0.84 0.84 0.83 0.83 0.79 0.76 0.79 0.71 0.74 0.66 0.63 0.55 0.39 0.37 0.39 0.41 0.42 0.41 0.40 0.39
0.87 0.85 0.87 0.85 0.86 0.80 0.82 0.77 0.75 0.71 0.65 0.65 0.56 0.41 0.39 0.38 0.40 0.42 0.41 0.40 0.39 0.37
0.88 0.90 0.88 0.86 0.83 0.79 0.81 0.74 0.74 0.77 0.64 0.54 0.43 0.38 0.40 0.41 0.43 0.39 0.38 0.38 0.35 0.35
0.89 0.88 0.87 0.85 0.77 0.81 0.80 0.77 0.71 0.63 0.51 0.45 0.41 0.44 0.44 0.41 0.42 0.38 0.37 0.37 0.34 0.33
0.82 0.86 0.84 0.83 0.82 0.81 0.77 0.74 0.67 0.58 0.50 0.45 0.45 0.46 0.40 0.43 0.41 0.39 0.37 0.36 0.32 0.30
0.87 0.83 0.90 0.75 0.70 0.79 0.71 0.66 0.60 0.56 0.53 0.46 0.45 0.44 0.46 0.42 0.43 0.42 0.37 0.35 0.33 0.31
0.82 0.83 0.69 0.70 0.75 0.67 0.61 0.59 0.58 0.56 0.47 0.47 0.48 0.46 0.48 0.45 0.43 0.40 0.37 0.36 0.34 0.33
0.78 0.71 0.70 0.69 0.66 0.67 0.62 0.60 0.56 0.49 0.48 0.49 0.48 0.47 0.43 0.41 0.40 0.38 0.34 0.35 0.34 0.31
0.71 0.67 0.68 0.67 0.67 0.64 0.62 0.56 0.52 0.50 0.49 0.46 0.44 0.43 0.42 0.40 0.37 0.34 0.32 0.31 0.31 0.30
0.66 0.65 0.64 0.64 0.62 0.61 0.57 0.56 0.51 0.47 0.45 0.43 0.41 0.39 0.37 0.37 0.35 0.33 0.30 0.30 0.30 0.29
0.62 0.63 0.64 0.64 0.61 0.62 0.57 0.49 0.46 0.43 0.41 0.37 0.35 0.36 0.35 0.35 0.33 0.31 0.30 0.31 0.32 0.29
0.66 0.63 0.63 0.65 0.61 0.53 0.48 0.43 0.39 0.35 0.31 0.30 0.31 0.33 0.34 0.33 0.31 0.29 0.29 0.32 0.31 0.29
0.67 0.69 0.63 0.55 0.49 0.43 0.38 0.33 0.29 0.27 0.27 0.28 0.28 0.31 0.32 0.32 0.29 0.27 0.28 0.30 0.29 0.26
0.67 0.57 0.50 0.43 0.38 0.34 0.29 0.26 0.25 0.25 0.26 0.27 0.29 0.30 0.32 0.32 0.30 0.28 0.28 0.28 0.27 0.27